DLH3A EHAM-EDDF

Flight info

Callsign DLH3A
Flight time 0h 43m
Altitude 31000
Route RENDI2S EDUPO Z739 MISGO DCT DIXAT DIXAT1A
Aircraft A320/M-SDE3FGHIRWY/LB1

Departure

Time 2026-05-04 07:33
Airport Amsterdam Airport Schiphol (EHAM)

Arrival

Time 2026-05-04 08:16
Airport Frankfurt Main Airport (EDDF)
Time Latitude Longitude Altitude Speed Heading
2026-05-04 07:05 52.30408 4.76355 -1 ft 0 kts 238°
2026-05-04 07:23 52.30415 4.76373 -1 ft 3 kts 239°
2026-05-04 07:23 52.30426 4.76403 -1 ft 3 kts 228°
2026-05-04 07:23 52.30439 4.76420 -1 ft 3 kts 175°
2026-05-04 07:23 52.30445 4.76419 -1 ft 0 kts 158°
2026-05-04 07:26 52.30440 4.76424 -1 ft 3 kts 153°
2026-05-04 07:27 52.30404 4.76468 -1 ft 9 kts 144°
2026-05-04 07:27 52.30342 4.76528 -1 ft 11 kts 155°
2026-05-04 07:27 52.30277 4.76475 -1 ft 12 kts 237°
2026-05-04 07:27 52.30237 4.76372 -1 ft 10 kts 238°
2026-05-04 07:28 52.30201 4.76283 -1 ft 9 kts 227°
2026-05-04 07:28 52.30137 4.76299 -1 ft 11 kts 126°
2026-05-04 07:28 52.30160 4.76427 -1 ft 14 kts 58°
2026-05-04 07:28 52.30212 4.76561 -1 ft 14 kts 58°
2026-05-04 07:29 52.30260 4.76688 -1 ft 13 kts 58°
2026-05-04 07:29 52.30306 4.76807 -1 ft 13 kts 58°
2026-05-04 07:29 52.30361 4.76951 -1 ft 15 kts 58°
2026-05-04 07:29 52.30418 4.77100 -1 ft 16 kts 59°
2026-05-04 07:30 52.30398 4.77245 -2 ft 16 kts 138°
2026-05-04 07:30 52.30349 4.77359 -3 ft 11 kts 136°
2026-05-04 07:30 52.30294 4.77325 -4 ft 8 kts 237°
2026-05-04 07:30 52.30257 4.77229 -4 ft 19 kts 238°
2026-05-04 07:31 52.30051 4.76694 -2 ft 91 kts 238°
2026-05-04 07:31 52.29607 4.75539 -1 ft 147 kts 238°
2026-05-04 07:33 52.22921 4.70316 3875 ft 236 kts 119°
2026-05-04 07:33 52.22124 4.72666 4742 ft 238 kts 118°
2026-05-04 07:33 52.21334 4.75050 5563 ft 241 kts 118°
2026-05-04 07:33 52.20531 4.77474 6339 ft 248 kts 120°
2026-05-04 07:34 52.19639 4.80040 6710 ft 271 kts 121°
2026-05-04 07:34 52.18671 4.82665 7349 ft 281 kts 122°
2026-05-04 07:34 52.17609 4.85469 8179 ft 286 kts 123°
2026-05-04 07:34 52.16554 4.88232 9026 ft 289 kts 124°
2026-05-04 07:35 52.15481 4.91032 9868 ft 293 kts 124°
2026-05-04 07:35 52.14395 4.93866 10358 ft 309 kts 124°
2026-05-04 07:35 52.13214 4.96950 10596 ft 333 kts 124°
2026-05-04 07:35 52.11952 5.00246 10923 ft 351 kts 124°
2026-05-04 07:36 52.10655 5.03654 11565 ft 357 kts 124°
2026-05-04 07:36 52.09340 5.07115 12287 ft 362 kts 124°
2026-05-04 07:38 51.99693 5.32320 16812 ft 388 kts 125°
2026-05-04 07:38 51.98252 5.36049 17420 ft 392 kts 125°
2026-05-04 07:38 51.96797 5.39810 18013 ft 396 kts 125°
2026-05-04 07:38 51.95328 5.43609 18567 ft 400 kts 126°
2026-05-04 07:39 51.93847 5.47440 19104 ft 403 kts 126°
2026-05-04 07:39 51.92353 5.51296 19659 ft 405 kts 126°
2026-05-04 07:39 51.90848 5.55174 20225 ft 407 kts 126°
2026-05-04 07:39 51.89338 5.59063 20797 ft 409 kts 127°
2026-05-04 07:40 51.87818 5.62973 21336 ft 412 kts 127°
2026-05-04 07:40 51.86285 5.66906 21864 ft 414 kts 127°
2026-05-04 07:40 51.84742 5.70856 22371 ft 417 kts 127°
2026-05-04 07:40 51.83198 5.74807 22871 ft 419 kts 128°
2026-05-04 07:41 51.81633 5.78801 23362 ft 421 kts 128°
2026-05-04 07:41 51.80056 5.82815 23790 ft 424 kts 128°
2026-05-04 07:41 51.78471 5.86848 24117 ft 428 kts 128°
2026-05-04 07:41 51.76866 5.90926 24466 ft 432 kts 128°
2026-05-04 07:42 51.75249 5.95030 24822 ft 435 kts 128°
2026-05-04 07:42 51.73619 5.99161 25170 ft 437 kts 128°
2026-05-04 07:42 51.71982 6.03300 25511 ft 440 kts 128°
2026-05-04 07:42 51.70328 6.07472 25846 ft 442 kts 128°
2026-05-04 07:43 51.68667 6.11655 26184 ft 445 kts 128°
2026-05-04 07:43 51.66995 6.15861 26515 ft 447 kts 128°
2026-05-04 07:43 51.65310 6.20098 26836 ft 450 kts 128°
2026-05-04 07:43 51.63617 6.24342 27150 ft 452 kts 128°
2026-05-04 07:44 51.61915 6.28607 27484 ft 453 kts 128°
2026-05-04 07:44 51.60251 6.32766 27765 ft 456 kts 128°
2026-05-04 07:44 51.58483 6.37172 28065 ft 458 kts 128°
2026-05-04 07:44 51.56753 6.41474 28351 ft 460 kts 128°
2026-05-04 07:45 51.55007 6.45818 28639 ft 463 kts 128°
2026-05-04 07:45 51.53259 6.50162 28915 ft 465 kts 128°
2026-05-04 07:45 51.51499 6.54531 29172 ft 467 kts 128°
2026-05-04 07:45 51.49730 6.58917 29438 ft 469 kts 128°
2026-05-04 07:46 51.47959 6.63291 29677 ft 471 kts 128°
2026-05-04 07:46 51.46222 6.67575 29903 ft 473 kts 128°
2026-05-04 07:46 51.44428 6.71999 30186 ft 472 kts 128°
2026-05-04 07:46 51.42638 6.76409 30457 ft 472 kts 128°
2026-05-04 07:47 51.41694 6.78739 30613 ft 471 kts 128°
2026-05-04 07:47 51.39924 6.83128 30882 ft 471 kts 128°
2026-05-04 07:47 51.38144 6.87489 30990 ft 468 kts 128°
2026-05-04 07:49 51.25969 7.14626 29486 ft 448 kts 145°
2026-05-04 07:49 51.23484 7.17526 29173 ft 440 kts 154°
2026-05-04 07:49 51.21261 7.19456 28943 ft 434 kts 159°
2026-05-04 07:50 51.18766 7.21408 28693 ft 433 kts 159°
2026-05-04 07:50 51.16818 7.22943 28371 ft 428 kts 159°
2026-05-04 07:50 51.14231 7.24987 27764 ft 424 kts 159°
2026-05-04 07:50 51.11604 7.27068 27133 ft 420 kts 159°
2026-05-04 07:51 51.09010 7.29153 26524 ft 416 kts 158°
2026-05-04 07:51 51.06562 7.31164 25945 ft 413 kts 158°
2026-05-04 07:51 51.04185 7.33143 25383 ft 410 kts 157°
2026-05-04 07:51 51.01673 7.35243 24779 ft 407 kts 157°
2026-05-04 07:52 50.99176 7.37324 24206 ft 403 kts 157°
2026-05-04 07:52 50.96819 7.39278 23666 ft 400 kts 157°
2026-05-04 07:52 50.94340 7.41322 23051 ft 397 kts 157°
2026-05-04 07:52 50.91905 7.43316 22542 ft 391 kts 157°
2026-05-04 07:53 50.89503 7.45283 22049 ft 387 kts 157°
2026-05-04 07:54 50.73345 7.58457 18796 ft 364 kts 157°
2026-05-04 07:55 50.71096 7.60275 18310 ft 363 kts 156°
2026-05-04 07:55 50.68857 7.62091 17791 ft 362 kts 156°
2026-05-04 07:55 50.66613 7.63906 17363 ft 363 kts 156°
2026-05-04 07:55 50.64371 7.65718 16924 ft 362 kts 156°
2026-05-04 07:56 50.62132 7.67525 16475 ft 360 kts 156°
2026-05-04 07:56 50.59909 7.69317 16045 ft 358 kts 156°
2026-05-04 07:56 50.57699 7.71102 15632 ft 356 kts 156°
2026-05-04 07:56 50.55500 7.72879 15234 ft 355 kts 156°
2026-05-04 07:57 50.53314 7.74651 14832 ft 353 kts 155°
2026-05-04 07:57 50.51134 7.76414 14431 ft 352 kts 156°
2026-05-04 07:57 50.48961 7.78161 14032 ft 350 kts 156°
2026-05-04 07:57 50.46799 7.79894 13615 ft 348 kts 156°
2026-05-04 07:58 50.44646 7.81617 13209 ft 347 kts 155°
2026-05-04 07:58 50.42630 7.83697 12810 ft 349 kts 140°
2026-05-04 07:58 50.41100 7.86662 12450 ft 353 kts 121°
2026-05-04 07:58 50.40215 7.90266 12060 ft 356 kts 109°
2026-05-04 07:59 50.39509 7.93990 11675 ft 356 kts 108°
2026-05-04 07:59 50.38819 7.97704 11305 ft 355 kts 108°
2026-05-04 07:59 50.38132 8.01411 10937 ft 353 kts 108°
2026-05-04 07:59 50.37448 8.05095 10571 ft 352 kts 108°
2026-05-04 08:00 50.36766 8.08734 10237 ft 345 kts 108°
2026-05-04 08:00 50.36102 8.12271 10052 ft 333 kts 109°
2026-05-04 08:00 50.35458 8.15678 10021 ft 317 kts 109°
2026-05-04 08:02 50.32207 8.38226 9375 ft 301 kts 104°
2026-05-04 08:02 50.31768 8.41419 9194 ft 300 kts 105°
2026-05-04 08:02 50.31325 8.44602 9004 ft 299 kts 105°
2026-05-04 08:03 50.30884 8.47768 8824 ft 298 kts 105°
2026-05-04 08:03 50.30443 8.50917 8641 ft 292 kts 105°
2026-05-04 08:03 50.30024 8.53915 8459 ft 272 kts 105°
2026-05-04 08:03 50.29632 8.56743 8278 ft 263 kts 105°
2026-05-04 08:04 50.29246 8.59528 8103 ft 261 kts 105°
2026-05-04 08:04 50.28861 8.62289 7925 ft 260 kts 105°
2026-05-04 08:04 50.28480 8.64992 7753 ft 259 kts 105°
2026-05-04 08:04 50.28089 8.67742 7580 ft 259 kts 105°
2026-05-04 08:05 50.27699 8.70473 7407 ft 257 kts 105°
2026-05-04 08:05 50.27312 8.73194 7234 ft 256 kts 105°
2026-05-04 08:05 50.26926 8.75906 7062 ft 255 kts 105°
2026-05-04 08:05 50.26542 8.78613 6889 ft 254 kts 105°
2026-05-04 08:06 50.26119 8.81287 6722 ft 253 kts 110°
2026-05-04 08:06 50.25526 8.83862 6505 ft 251 kts 113°
2026-05-04 08:06 50.24904 8.86385 6261 ft 250 kts 114°
2026-05-04 08:06 50.24275 8.88909 6002 ft 249 kts 114°
2026-05-04 08:08 50.15665 8.98328 4332 ft 224 kts 206°
2026-05-04 08:08 50.14309 8.97142 4176 ft 224 kts 213°
2026-05-04 08:10 50.09514 8.81918 3487 ft 181 kts 249°
2026-05-04 08:11 50.09077 8.80065 3244 ft 184 kts 249°
2026-05-04 08:11 50.08202 8.76355 2753 ft 182 kts 249°
2026-05-04 08:11 50.07774 8.74546 2508 ft 173 kts 249°
2026-05-04 08:12 50.07362 8.72805 2289 ft 170 kts 249°
2026-05-04 08:12 50.06954 8.71081 2066 ft 167 kts 250°
2026-05-04 08:12 50.06572 8.69469 1857 ft 151 kts 249°
2026-05-04 08:12 50.06224 8.67998 1652 ft 141 kts 249°
2026-05-04 08:13 50.05888 8.66584 1462 ft 138 kts 249°
2026-05-04 08:13 50.05556 8.65186 1286 ft 137 kts 249°
2026-05-04 08:13 50.05227 8.63801 1077 ft 135 kts 249°
2026-05-04 08:13 50.04905 8.62421 904 ft 136 kts 250°
2026-05-04 08:14 50.04570 8.61037 737 ft 137 kts 249°
2026-05-04 08:14 50.04241 8.59651 551 ft 136 kts 250°
2026-05-04 08:14 50.03915 8.58277 381 ft 135 kts 249°
2026-05-04 08:16 50.03414 8.54422 339 ft 20 kts 339°
2026-05-04 08:16 50.03546 8.54347 346 ft 21 kts 339°
2026-05-04 08:16 50.03656 8.54327 348 ft 14 kts 42°
2026-05-04 08:17 50.03700 8.54495 348 ft 22 kts 69°
2026-05-04 08:17 50.03754 8.54719 351 ft 22 kts 69°
2026-05-04 08:17 50.03813 8.54965 352 ft 26 kts 69°
2026-05-04 08:17 50.03877 8.55234 351 ft 27 kts 70°
2026-05-04 08:19 50.04313 8.56817 360 ft 16 kts 12°
2026-05-04 08:19 50.04419 8.56848 363 ft 15 kts
2026-05-04 08:20 50.04518 8.56878 359 ft 14 kts 13°
2026-05-04 08:20 50.04612 8.56913 356 ft 15 kts 13°
2026-05-04 08:20 50.04700 8.56968 363 ft 13 kts 25°
2026-05-04 08:20 50.04778 8.57023 356 ft 12 kts 25°
2026-05-04 08:21 50.04840 8.57074 360 ft 8 kts 53°
2026-05-04 08:21 50.04826 8.57141 358 ft 6 kts 115°
2026-05-04 08:21 50.04817 8.57173 364 ft 1 kts 115°
2026-05-04 08:21 50.04814 8.57180 362 ft 0 kts 115°